Cortez, CO

5:54 PM MST on November 18, 2019 (GMT -0700)
Cortez Municipal

Weather History for KCEZ - September, 2019

Change the Weather History Date:

Sunday, September 1, 2019

  Actual Average Record
Temperature  
Mean Temperature 71 °F 65 °F  
Max Temperature 95 °F 82 °F 95 °F (2019)
Min Temperature 46 °F 49 °F 37 °F (2005)
Degree Days  
Heating Degree Days 0 1  
Month to date heating degree days 0 1  
Since 1 July heating degree days 0 13  
Cooling Degree Days 6 2  
Month to date cooling degree days 6 2  
Year to date cooling degree days 486 411  
Growing Degree Days 20 (Base 50)    
Moisture  
Dew Point 39 °F    
Average Humidity 40    
Maximum Humidity 66    
Minimum Humidity 13    
Precipitation  
Precipitation 0.00 in 0.05 in 1.33 in (2018)
Month to date precipitation 0.00 0.05  
Year to date precipitation 9.78 8.49  
Sea Level Pressure  
Sea Level Pressure 30.00 in    
Wind  
Wind Speed 5 mph (SE)    
Max Wind Speed 15 mph    
Max Gust Speed 21 mph    
Visibility 10 miles    
Events      
T = Trace of Precipitation, MM = Missing Value Source: NWS Daily Summary

Daily Weather History Graph

Daily Weather History Graph

Search for Another Location

Airport or City:

Astronomy

Sep. 01, 2019 Rise Set
Actual Time 6:44 AM MDT 7:43 PM MDT
Civil Twilight 6:18 AM MDT 8:10 PM MDT
Nautical Twilight 5:46 AM MDT 8:41 PM MDT
Astronomical Twilight 5:13 AM MDT 9:14 PM MDT
Moon 9:16 AM MDT (9/1) 9:36 PM MDT (9/1)
Length of Visible Light 13h 51m
Length of Day
12h 58m
Waxing Crescent, 8% of the Moon is Illuminated
Sep 1
Waxing Crescent
Sep 5
First Quarter
Sep 13
Full
Sep 21
Last Quarter
Sep 28
New

Hourly Weather History & Observations

Time (MDT) Temp. Dew Point Humidity Pressure Visibility Wind Dir Wind Speed Gust Speed Precip Events Conditions
12:53 AM 55.9 °F 34.0 °F 44% 29.96 in 10.0 mi ENE 4.6 mph - N/A   Clear
1:53 AM 51.1 °F 37.0 °F 59% 30.00 in 10.0 mi SE 11.5 mph - N/A   Clear
2:53 AM 50.0 °F 36.0 °F 59% 30.01 in 10.0 mi Calm Calm - N/A   Clear
3:53 AM 50.0 °F 35.1 °F 57% 30.01 in 10.0 mi NE 6.9 mph - N/A   Clear
4:53 AM 50.0 °F 35.1 °F 57% 30.00 in 10.0 mi Calm Calm - N/A   Clear
5:53 AM 48.0 °F 37.9 °F 68% 30.03 in 10.0 mi Calm Calm - N/A   Clear
6:53 AM 48.0 °F 37.9 °F 68% 30.06 in 10.0 mi ESE 4.6 mph - N/A   Clear
7:53 AM 55.9 °F 41.0 °F 57% 30.11 in 10.0 mi East 3.5 mph - N/A   Clear
8:53 AM 70.0 °F 43.0 °F 38% 30.09 in 10.0 mi Calm Calm - N/A   Clear
9:53 AM 80.1 °F 46.0 °F 30% 30.07 in 10.0 mi Variable 3.5 mph - N/A   Clear
10:53 AM 84.0 °F 46.0 °F 26% 30.05 in 10.0 mi Variable 3.5 mph - N/A   Clear
11:53 AM 88.0 °F 46.0 °F 23% 30.04 in 10.0 mi Variable 3.5 mph - N/A   Clear
12:53 PM 90.0 °F 41.0 °F 18% 30.02 in 10.0 mi SSW 4.6 mph - N/A   Clear
1:53 PM 90.0 °F 41.0 °F 18% 30.02 in 10.0 mi West 10.4 mph 16.1 mph N/A   Clear
2:53 PM 93.0 °F 37.9 °F 15% 29.98 in 10.0 mi West 9.2 mph - N/A   Clear
3:53 PM 87.1 °F 44.1 °F 22% 29.98 in 10.0 mi South 10.4 mph - N/A   Clear
4:53 PM 93.0 °F 36.0 °F 13% 29.94 in 10.0 mi West 10.4 mph 17.3 mph N/A   Clear
5:53 PM 91.9 °F 35.1 °F 13% 29.94 in 10.0 mi West 9.2 mph - N/A   Clear
6:53 PM 89.1 °F 35.1 °F 15% 29.94 in 10.0 mi West 6.9 mph - N/A   Clear
7:53 PM 79.0 °F 37.0 °F 22% 29.96 in 10.0 mi South 5.8 mph - N/A   Clear
8:53 PM 66.9 °F 39.0 °F 36% 29.97 in 10.0 mi NE 8.1 mph - N/A   Clear
9:53 PM 66.0 °F 39.0 °F 37% 29.96 in 10.0 mi ENE 9.2 mph - N/A   Clear
10:53 PM 64.9 °F 35.1 °F 33% 29.96 in 10.0 mi NE 6.9 mph - N/A   Clear
11:53 PM 63.0 °F 36.0 °F 37% 29.96 in 10.0 mi Calm Calm - N/A   Clear